Location: *
(45.1961°N, 1.9694°E)
Time: 14:07:55
(UTC+00:00)

SL-8 Rocket - Pass Details

Date: 25 August 2019
Orbit: 957 x 991 km, 82.9° (Epoch: 22 September)

Event Time Altitude Azimuth Distance (km) Brightness Sun altitude
Rises 23:01:13 0° 349° (NNW) 3,706 8.1 -32.9°
Reaches altitude 10° 23:03:46 10° 346° (NNW) 2,749 7.2 -33.1°
Enters shadow 23:09:06 59° 308° (NW) 1,127 4.4 -33.3°
